Date,TemperatureHighF,TemperatureAvgF,TemperatureLowF,DewpointHighF,DewpointAvgF,DewpointLowF,HumidityHigh,HumidityAvg,HumidityLow,PressureMaxIn,PressureMinIn,WindSpeedMaxMPH,WindSpeedAvgMPH,GustSpeedMaxMPH,PrecipitationSumIn
2013-12-1,77.5,67.5,61.3,68.2,64.0,59.9,99,89,69,30.23,30.08,2,2,2,0.01
2013-12-2,77.0,67.5,62.4,66.9,63.8,60.6,99,89,64,30.08,29.92,3,2,3,0.00
2013-12-3,79.0,67.9,59.7,67.7,63.0,58.9,99,85,63,30.09,30.00,2,2,2,0.00
2013-12-4,82.4,66.1,60.1,72.6,63.1,59.5,99,91,60,30.18,30.07,2,2,2,0.00
2013-12-5,84.2,80.4,62.6,72.1,67.0,61.8,99,65,56,30.25,30.15,2,2,2,0.00
2013-12-6,81.9,81.9,81.9,66.7,66.7,66.7,60,60,60,30.21,30.21,2,2,2,0.00
2013-12-7,81.9,81.9,81.9,66.7,66.7,66.7,60,60,60,30.21,30.21,2,2,2,0.00
2013-12-8,81.9,81.9,81.9,66.7,66.7,66.7,60,60,60,30.21,30.21,2,2,2,0.00
2013-12-9,81.9,81.9,81.9,66.7,66.7,66.7,60,60,60,30.21,30.21,2,2,2,0.00
2013-12-10,81.9,81.9,81.9,66.7,66.7,66.7,60,60,60,30.21,30.21,2,2,2,0.00
2013-12-11,81.9,81.9,81.9,66.7,66.7,66.7,60,60,60,30.21,30.21,2,2,2,0.00
2013-12-12,81.9,81.9,81.9,66.7,66.7,66.7,60,60,60,30.21,30.21,2,2,2,0.00
2013-12-13,84.0,69.4,64.2,71.4,66.5,63.4,99,91,61,29.90,29.76,2,2,2,0.00
2013-12-14,84.6,74.0,68.9,69.4,68.3,67.6,96,84,59,29.87,29.80,4,2,4,0.00
2013-12-15,63.0,56.6,53.1,54.0,48.9,47.6,91,76,62,29.93,29.84,2,1,2,0.00
2013-12-16,72.3,67.3,64.9,65.7,63.5,61.9,97,88,72,29.81,29.73,2,2,2,0.01
2013-12-17,75.6,73.4,70.9,70.3,69.7,68.8,97,88,81,29.70,29.62,2,2,2,0.00
2013-12-18,75.7,53.2,48.6,72.6,48.7,44.6,90,85,78,29.94,29.66,2,1,2,0.00
2013-12-19,79.9,62.3,48.4,60.1,53.5,44.6,93,75,46,29.93,29.82,2,2,2,0.01
2013-12-20,83.7,69.9,58.1,67.9,62.5,55.5,94,79,57,29.85,29.76,2,2,2,0.01
2013-12-21,86.0,74.9,66.6,72.4,66.8,19.7,95,77,55,29.82,29.71,34,2,34,0.00
2013-12-22,81.7,73.3,66.9,71.4,67.8,64.4,94,83,71,29.84,29.75,2,2,2,0.00
2013-12-23,85.6,74.6,66.2,75.2,68.3,63.8,96,82,59,29.86,29.78,2,2,2,0.00
2013-12-24,77.4,67.6,58.1,68.2,61.2,44.6,96,81,55,29.89,29.80,2,2,2,0.00
2013-12-25,79.2,66.6,58.1,65.0,56.7,48.8,84,71,61,29.87,29.76,2,2,2,0.01
2013-12-26,80.8,70.2,63.0,68.7,63.9,59.0,91,81,63,29.86,29.73,2,2,2,0.00
2013-12-27,70.2,70.2,70.2,66.1,66.1,66.1,87,87,87,29.89,29.75,2,2,2,0.00
2013-12-28,81.5,73.0,66.7,70.9,67.6,65.0,94,84,66,29.86,29.70,2,2,2,0.00
2013-12-29,78.4,74.5,72.0,75.1,70.8,68.1,95,88,79,29.72,29.60,8,2,8,0.00
2013-12-30,71.8,68.1,66.4,68.4,63.5,61.4,92,85,79,29.85,29.69,2,1,2,0.00
2013-12-31,66.4,64.2,63.5,61.4,56.9,55.5,84,77,75,29.95,29.82,2,2,2,0.00